SIA961 WIII-WSSS

Flight info

Callsign SIA961
Flight time 1h 14m
Altitude 38000
Route DOLTA G579 REPOV REPOV2B
Aircraft B77W/H-SDE1E2E3FGHIJ4J5M1P2RWXYZ/LB1D1

Departure

Time 2026-05-01 09:10
Airport Soekarno-Hatta International Airport (WIII)

Arrival

Time 2026-05-01 10:25
Airport Singapore Changi Airport (WSSS)
Time Latitude Longitude Altitude Speed Heading
2026-05-01 08:37 -6.11663 106.66680 43 ft 0 kts 158°
2026-05-01 08:58 -6.11661 106.66680 43 ft 2 kts 158°
2026-05-01 08:58 -6.11637 106.66670 43 ft 4 kts 158°
2026-05-01 08:58 -6.11612 106.66660 42 ft 4 kts 158°
2026-05-01 08:59 -6.11593 106.66653 41 ft 4 kts 172°
2026-05-01 08:59 -6.11575 106.66653 41 ft 4 kts 211°
2026-05-01 08:59 -6.11563 106.66665 38 ft 3 kts 248°
2026-05-01 08:59 -6.11554 106.66689 38 ft 3 kts 248°
2026-05-01 09:00 -6.11553 106.66692 39 ft 0 kts 248°
2026-05-01 09:03 -6.11553 106.66691 43 ft 0 kts 248°
2026-05-01 09:03 -6.11558 106.66679 43 ft 4 kts 248°
2026-05-01 09:03 -6.11572 106.66642 43 ft 8 kts 248°
2026-05-01 09:03 -6.11597 106.66581 43 ft 11 kts 248°
2026-05-01 09:04 -6.11629 106.66499 42 ft 12 kts 248°
2026-05-01 09:04 -6.11638 106.66425 43 ft 11 kts 300°
2026-05-01 09:04 -6.11565 106.66381 43 ft 14 kts 338°
2026-05-01 09:04 -6.11475 106.66345 43 ft 14 kts 339°
2026-05-01 09:05 -6.11387 106.66310 43 ft 12 kts 338°
2026-05-01 09:05 -6.11357 106.66238 43 ft 13 kts 255°
2026-05-01 09:05 -6.11395 106.66141 44 ft 17 kts 248°
2026-05-01 09:05 -6.11442 106.66022 43 ft 20 kts 248°
2026-05-01 09:06 -6.11498 106.65883 43 ft 23 kts 248°
2026-05-01 09:06 -6.11561 106.65726 43 ft 26 kts 248°
2026-05-01 09:06 -6.11630 106.65552 43 ft 28 kts 248°
2026-05-01 09:06 -6.11702 106.65370 44 ft 28 kts 248°
2026-05-01 09:07 -6.11775 106.65188 44 ft 28 kts 248°
2026-05-01 09:07 -6.11847 106.65006 44 ft 28 kts 248°
2026-05-01 09:07 -6.11920 106.64824 44 ft 28 kts 248°
2026-05-01 09:07 -6.11993 106.64642 44 ft 28 kts 248°
2026-05-01 09:08 -6.12064 106.64463 44 ft 28 kts 248°
2026-05-01 09:08 -6.12137 106.64280 44 ft 28 kts 248°
2026-05-01 09:08 -6.12204 106.64113 44 ft 21 kts 248°
2026-05-01 09:08 -6.12248 106.64003 44 ft 14 kts 248°
2026-05-01 09:09 -6.12240 106.63920 45 ft 12 kts 308°
2026-05-01 09:09 -6.12173 106.63895 46 ft 11 kts
2026-05-01 09:09 -6.12107 106.63929 46 ft 11 kts 31°
2026-05-01 09:09 -6.12060 106.63987 45 ft 11 kts 66°
2026-05-01 09:10 -6.12009 106.64113 46 ft 40 kts 68°
2026-05-01 09:10 -6.11796 106.64646 47 ft 123 kts 68°
2026-05-01 09:10 -6.11372 106.65639 184 ft 172 kts 63°
2026-05-01 09:10 -6.10918 106.66702 1019 ft 169 kts 66°
2026-05-01 09:11 -6.10337 106.67751 1465 ft 185 kts 39°
2026-05-01 09:11 -6.09185 106.68486 1777 ft 208 kts 30°
2026-05-01 09:11 -6.07850 106.69320 1994 ft 243 kts 32°
2026-05-01 09:11 -6.06351 106.70286 2569 ft 262 kts 33°
2026-05-01 09:12 -6.04793 106.71298 3401 ft 270 kts 33°
2026-05-01 09:12 -6.03203 106.72335 4224 ft 274 kts 34°
2026-05-01 09:12 -6.01623 106.73367 4839 ft 276 kts 34°
2026-05-01 09:12 -5.99965 106.74364 5000 ft 282 kts 22°
2026-05-01 09:13 -5.98024 106.74637 5016 ft 287 kts 352°
2026-05-01 09:13 -5.96169 106.73918 5017 ft 288 kts 322°
2026-05-01 09:13 -5.94901 106.72412 5012 ft 280 kts 296°
2026-05-01 09:13 -5.94074 106.70652 5022 ft 280 kts 293°
2026-05-01 09:14 -5.93261 106.68865 5020 ft 282 kts 293°
2026-05-01 09:14 -5.92439 106.67066 5022 ft 284 kts 294°
2026-05-01 09:14 -5.91610 106.65264 5015 ft 284 kts 294°
2026-05-01 09:14 -5.90778 106.63463 5007 ft 284 kts 294°
2026-05-01 09:15 -5.89945 106.61667 5012 ft 283 kts 294°
2026-05-01 09:15 -5.89110 106.59872 5387 ft 283 kts 294°
2026-05-01 09:15 -5.88270 106.58069 6318 ft 286 kts 294°
2026-05-01 09:15 -5.87422 106.56250 7207 ft 288 kts 294°
2026-05-01 09:16 -5.86578 106.54439 8049 ft 292 kts 295°
2026-05-01 09:16 -5.85709 106.52575 8878 ft 296 kts 295°
2026-05-01 09:16 -5.84831 106.50692 9727 ft 300 kts 295°
2026-05-01 09:17 -5.82994 106.46754 10693 ft 333 kts 295°
2026-05-01 09:17 -5.81973 106.44560 10882 ft 359 kts 295°
2026-05-01 09:17 -5.79770 106.39815 11879 ft 385 kts 295°
2026-05-01 09:18 -5.78632 106.37362 12612 ft 390 kts 295°
2026-05-01 09:18 -5.76319 106.32379 13825 ft 397 kts 295°
2026-05-01 09:19 -5.73701 106.27476 14195 ft 401 kts 311°
2026-05-01 09:19 -5.71626 106.25680 14964 ft 398 kts 328°
2026-05-01 09:19 -5.69206 106.24294 15535 ft 404 kts 332°
2026-05-01 09:20 -5.64198 106.21563 16821 ft 413 kts 332°
2026-05-01 09:20 -5.59116 106.18751 18184 ft 421 kts 332°
2026-05-01 09:21 -5.53964 106.15853 19351 ft 428 kts 331°
2026-05-01 09:21 -5.51362 106.14384 19962 ft 431 kts 331°
2026-05-01 09:21 -5.46125 106.11424 21117 ft 438 kts 331°
2026-05-01 09:22 -5.40775 106.08405 22296 ft 444 kts 331°
2026-05-01 09:22 -5.35352 106.05345 23425 ft 451 kts 331°
2026-05-01 09:23 -5.32607 106.03795 23875 ft 454 kts 332°
2026-05-01 09:23 -5.27048 106.00658 24795 ft 460 kts 332°
2026-05-01 09:24 -5.21428 105.97485 25715 ft 467 kts 332°
2026-05-01 09:24 -5.18624 105.95901 26181 ft 469 kts 332°
2026-05-01 09:24 -5.12905 105.92674 27105 ft 475 kts 332°
2026-05-01 09:25 -5.07070 105.89362 27976 ft 481 kts 331°
2026-05-01 09:25 -5.01251 105.86041 28799 ft 488 kts 331°
2026-05-01 09:26 -4.98295 105.84353 29257 ft 490 kts 331°
2026-05-01 09:26 -4.92338 105.80955 30090 ft 494 kts 331°
2026-05-01 09:26 -4.89342 105.79246 30433 ft 497 kts 331°
2026-05-01 09:27 -4.83302 105.75805 31078 ft 500 kts 331°
2026-05-01 09:27 -4.80282 105.74085 31488 ft 500 kts 331°
2026-05-01 09:27 -4.77264 105.72365 31989 ft 497 kts 331°
2026-05-01 09:28 -4.74266 105.70657 32480 ft 495 kts 331°
2026-05-01 09:28 -4.71282 105.68957 32946 ft 493 kts 331°
2026-05-01 09:28 -4.68305 105.67262 33407 ft 492 kts 331°
2026-05-01 09:28 -4.65333 105.65570 33865 ft 490 kts 331°
2026-05-01 09:29 -4.59413 105.62199 34659 ft 488 kts 331°
2026-05-01 09:29 -4.56463 105.60519 35017 ft 487 kts 331°
2026-05-01 09:30 -4.50588 105.57176 35756 ft 484 kts 331°
2026-05-01 09:30 -4.47654 105.55506 36120 ft 483 kts 331°
2026-05-01 09:30 -4.41855 105.52206 36826 ft 482 kts 331°
2026-05-01 09:31 -4.38943 105.50550 37177 ft 481 kts 331°
2026-05-01 09:31 -4.36032 105.48894 37498 ft 480 kts 331°
2026-05-01 09:31 -4.30201 105.45576 37792 ft 485 kts 331°
2026-05-01 09:32 -4.27260 105.43904 37827 ft 487 kts 331°
2026-05-01 09:32 -4.18447 105.38892 37813 ft 481 kts 331°
2026-05-01 09:33 -4.12644 105.35592 37823 ft 479 kts 331°
2026-05-01 09:34 -4.03973 105.30663 37828 ft 479 kts 331°
2026-05-01 09:34 -3.95254 105.25707 37822 ft 481 kts 331°
2026-05-01 09:35 -3.86476 105.20739 37823 ft 484 kts 331°
2026-05-01 09:36 -3.80594 105.17433 37824 ft 485 kts 331°
2026-05-01 09:36 -3.74703 105.14122 37823 ft 486 kts 331°
2026-05-01 09:37 -3.68804 105.10802 37819 ft 486 kts 331°
2026-05-01 09:37 -3.59993 105.05842 37819 ft 486 kts 331°
2026-05-01 09:38 -3.51139 105.00859 37817 ft 486 kts 331°
2026-05-01 09:39 -3.42291 104.95882 37816 ft 486 kts 331°
2026-05-01 09:39 -3.36401 104.92569 37816 ft 486 kts 331°
2026-05-01 09:40 -3.28544 104.88150 37814 ft 486 kts 331°
2026-05-01 09:41 -3.21676 104.84287 37810 ft 487 kts 331°
2026-05-01 09:41 -3.13803 104.79861 37814 ft 487 kts 332°
2026-05-01 09:42 -3.07887 104.76535 37807 ft 487 kts 332°
2026-05-01 09:43 -2.96048 104.69880 37803 ft 488 kts 332°
2026-05-01 09:43 -2.90079 104.66662 37794 ft 486 kts 338°
2026-05-01 09:44 -2.80455 104.63782 37807 ft 483 kts 351°
2026-05-01 09:45 -2.73841 104.62579 37808 ft 483 kts 351°
2026-05-01 09:45 -2.63916 104.60771 37812 ft 483 kts 351°
2026-05-01 09:46 -2.57320 104.59534 37816 ft 482 kts 351°
2026-05-01 09:46 -2.50726 104.58287 37816 ft 482 kts 351°
2026-05-01 09:47 -2.44142 104.57041 37818 ft 481 kts 351°
2026-05-01 09:47 -2.37593 104.55805 37819 ft 480 kts 351°
2026-05-01 09:48 -2.31013 104.54563 37821 ft 480 kts 351°
2026-05-01 09:48 -2.24458 104.53326 37828 ft 479 kts 351°
2026-05-01 09:49 -2.17899 104.52089 37819 ft 479 kts 351°
2026-05-01 09:49 -2.11344 104.50853 37824 ft 479 kts 351°
2026-05-01 09:50 -2.04825 104.49623 37831 ft 479 kts 351°
2026-05-01 09:50 -1.98270 104.48386 37827 ft 480 kts 351°
2026-05-01 09:51 -1.91705 104.47148 37828 ft 480 kts 351°
2026-05-01 09:51 -1.85136 104.45909 37830 ft 480 kts 351°
2026-05-01 09:52 -1.78548 104.44667 37830 ft 481 kts 351°
2026-05-01 09:52 -1.72005 104.43433 37835 ft 481 kts 351°
2026-05-01 09:53 -1.65423 104.42192 37834 ft 481 kts 351°
2026-05-01 09:53 -1.58839 104.40951 37842 ft 481 kts 351°
2026-05-01 09:54 -1.52252 104.39709 37835 ft 481 kts 351°
2026-05-01 09:54 -1.45675 104.38469 37837 ft 481 kts 351°
2026-05-01 09:55 -1.39096 104.37229 37841 ft 480 kts 351°
2026-05-01 09:55 -1.32526 104.35990 37840 ft 480 kts 351°
2026-05-01 09:56 -1.25965 104.34754 37845 ft 479 kts 351°
2026-05-01 09:56 -1.19413 104.33519 37845 ft 479 kts 351°
2026-05-01 09:57 -1.12858 104.32283 37845 ft 478 kts 351°
2026-05-01 09:57 -1.06363 104.31059 37843 ft 478 kts 351°
2026-05-01 09:58 -0.99828 104.29828 37846 ft 477 kts 351°
2026-05-01 09:58 -0.93311 104.28600 37840 ft 476 kts 351°
2026-05-01 09:59 -0.86807 104.27374 37845 ft 475 kts 351°
2026-05-01 09:59 -0.80320 104.26152 37841 ft 474 kts 351°
2026-05-01 10:00 -0.73827 104.24928 37734 ft 475 kts 351°
2026-05-01 10:00 -0.70534 104.24308 36962 ft 484 kts 351°
2026-05-01 10:00 -0.67235 104.23687 36283 ft 482 kts 351°
2026-05-01 10:01 -0.63983 104.23073 35666 ft 479 kts 351°
2026-05-01 10:01 -0.60721 104.22457 35109 ft 475 kts 351°
2026-05-01 10:01 -0.57479 104.21847 34553 ft 472 kts 351°
2026-05-01 10:01 -0.54266 104.21233 34014 ft 469 kts 350°
2026-05-01 10:02 -0.51068 104.20602 33439 ft 466 kts 350°
2026-05-01 10:02 -0.47898 104.19968 32884 ft 463 kts 350°
2026-05-01 10:02 -0.44751 104.19336 32358 ft 459 kts 350°
2026-05-01 10:02 -0.41629 104.18710 31837 ft 456 kts 350°
2026-05-01 10:03 -0.38528 104.18090 31329 ft 453 kts 350°
2026-05-01 10:03 -0.35450 104.17476 30827 ft 450 kts 350°
2026-05-01 10:03 -0.32389 104.16867 30315 ft 448 kts 350°
2026-05-01 10:03 -0.29334 104.16260 29788 ft 446 kts 350°
2026-05-01 10:04 -0.26301 104.15657 29206 ft 443 kts 350°
2026-05-01 10:04 -0.23283 104.15057 28672 ft 440 kts 350°
2026-05-01 10:04 -0.20288 104.14461 28155 ft 437 kts 350°
2026-05-01 10:04 -0.17350 104.13877 27655 ft 434 kts 350°
2026-05-01 10:05 -0.14392 104.13289 27150 ft 432 kts 350°
2026-05-01 10:05 -0.11449 104.12704 26652 ft 429 kts 350°
2026-05-01 10:05 -0.08531 104.12124 26160 ft 426 kts 351°
2026-05-01 10:05 -0.05627 104.11547 25664 ft 424 kts 351°
2026-05-01 10:06 -0.02739 104.10972 25162 ft 422 kts 351°
2026-05-01 10:06 0.00148 104.10399 24668 ft 420 kts 351°
2026-05-01 10:06 0.03004 104.09831 24178 ft 418 kts 351°
2026-05-01 10:06 0.05853 104.09264 23695 ft 416 kts 351°
2026-05-01 10:07 0.08688 104.08701 23159 ft 415 kts 351°
2026-05-01 10:07 0.11488 104.08144 22639 ft 412 kts 351°
2026-05-01 10:07 0.14288 104.07587 22147 ft 409 kts 351°
2026-05-01 10:07 0.17073 104.07033 21668 ft 405 kts 351°
2026-05-01 10:08 0.22513 104.05951 21147 ft 387 kts 351°
2026-05-01 10:08 0.25077 104.05439 20931 ft 362 kts 351°
2026-05-01 10:08 0.27497 104.04956 20332 ft 350 kts 351°
2026-05-01 10:09 0.29839 104.04493 19652 ft 345 kts 351°
2026-05-01 10:09 0.32186 104.04028 18942 ft 342 kts 352°
2026-05-01 10:09 0.34509 104.03569 18256 ft 338 kts 352°
2026-05-01 10:09 0.36806 104.03114 17509 ft 334 kts 352°
2026-05-01 10:10 0.39075 104.02665 16775 ft 330 kts 351°
2026-05-01 10:10 0.41320 104.02220 16058 ft 327 kts 351°
2026-05-01 10:10 0.45742 104.01344 14861 ft 322 kts 351°
2026-05-01 10:11 0.47936 104.00909 14493 ft 322 kts 351°
2026-05-01 10:11 0.50132 104.00474 14138 ft 321 kts 351°
2026-05-01 10:11 0.52321 104.00040 13770 ft 321 kts 351°
2026-05-01 10:11 0.54507 103.99607 13379 ft 320 kts 351°
2026-05-01 10:12 0.56685 103.99175 13057 ft 317 kts 351°
2026-05-01 10:12 0.58113 103.98892 12878 ft 313 kts 351°
2026-05-01 10:12 0.63048 103.97913 12097 ft 308 kts 351°
2026-05-01 10:13 0.65146 103.97497 11813 ft 305 kts 351°
2026-05-01 10:13 0.67219 103.97086 11471 ft 303 kts 351°
2026-05-01 10:13 0.69296 103.96674 11085 ft 304 kts 351°
2026-05-01 10:14 0.73431 103.95851 10430 ft 302 kts 350°
2026-05-01 10:14 0.75476 103.95417 10118 ft 300 kts 349°
2026-05-01 10:14 0.77514 103.94977 9800 ft 298 kts 349°
2026-05-01 10:14 0.79546 103.94538 9465 ft 297 kts 349°
2026-05-01 10:15 0.81524 103.94111 9214 ft 292 kts 349°
2026-05-01 10:15 0.83485 103.93688 9020 ft 286 kts 349°
2026-05-01 10:15 0.85436 103.93270 8605 ft 288 kts 349°
2026-05-01 10:15 0.87403 103.92848 8192 ft 290 kts 349°
2026-05-01 10:16 0.89379 103.92424 7844 ft 289 kts 349°
2026-05-01 10:16 0.91335 103.92005 7503 ft 283 kts 349°
2026-05-01 10:16 0.95197 103.91180 6523 ft 286 kts 349°
2026-05-01 10:17 0.97102 103.90773 6335 ft 280 kts 349°
2026-05-01 10:17 1.00754 103.89991 6135 ft 250 kts 349°
2026-05-01 10:17 1.02391 103.89641 6047 ft 231 kts 349°
2026-05-01 10:18 1.05357 103.89008 5728 ft 218 kts 349°
2026-05-01 10:18 1.06846 103.88690 5466 ft 218 kts 349°
2026-05-01 10:18 1.08320 103.88376 5206 ft 215 kts 350°
2026-05-01 10:19 1.09756 103.88370 4970 ft 203 kts 18°
2026-05-01 10:19 1.11077 103.88818 4765 ft 201 kts 20°
2026-05-01 10:19 1.12420 103.89263 4510 ft 204 kts 19°
2026-05-01 10:20 1.15146 103.90165 3992 ft 207 kts 19°
2026-05-01 10:20 1.16511 103.90616 3716 ft 206 kts 19°
2026-05-01 10:20 1.17868 103.91065 3436 ft 205 kts 19°
2026-05-01 10:20 1.19216 103.91509 3186 ft 202 kts 19°
2026-05-01 10:21 1.20524 103.91941 2939 ft 199 kts 19°
2026-05-01 10:21 1.23140 103.92780 2425 ft 195 kts 23°
2026-05-01 10:21 1.24379 103.93285 2197 ft 187 kts 24°
2026-05-01 10:22 1.26577 103.94216 1744 ft 155 kts 25°
2026-05-01 10:22 1.28569 103.95063 1319 ft 156 kts 25°
2026-05-01 10:23 1.29559 103.95482 1136 ft 153 kts 25°
2026-05-01 10:23 1.31436 103.96277 776 ft 145 kts 23°
2026-05-01 10:23 1.32380 103.96680 612 ft 148 kts 23°
2026-05-01 10:24 1.34243 103.97471 226 ft 145 kts 21°
2026-05-01 10:24 1.36009 103.98213 36 ft 104 kts 23°
2026-05-01 10:25 1.36658 103.98524 38 ft 25 kts 43°
2026-05-01 10:25 1.36826 103.98742 37 ft 18 kts 71°
2026-05-01 10:26 1.36806 103.98850 37 ft 16 kts 113°
2026-05-01 10:26 1.36763 103.98950 37 ft 16 kts 113°
2026-05-01 10:26 1.36679 103.99148 37 ft 16 kts 113°
2026-05-01 10:27 1.36594 103.99348 37 ft 16 kts 113°
2026-05-01 10:27 1.36501 103.99565 37 ft 14 kts 113°
2026-05-01 10:28 1.36477 103.99622 37 ft 13 kts 112°
2026-05-01 10:28 1.36334 103.99655 37 ft 13 kts 204°
2026-05-01 10:28 1.36318 103.99577 37 ft 13 kts 292°
2026-05-01 10:29 1.36259 103.99424 37 ft 13 kts 216°
2026-05-01 10:29 1.36175 103.99387 37 ft 13 kts 202°
2026-05-01 10:30 1.36006 103.99317 37 ft 12 kts 202°
2026-05-01 10:30 1.35890 103.99268 37 ft 9 kts 202°
2026-05-01 10:31 1.35843 103.99209 37 ft 4 kts 287°
2026-05-01 10:31 1.35857 103.99177 37 ft 1 kts 293°
2026-05-01 10:32 1.35860 103.99171 37 ft 0 kts 293°